CNV6694 PADU-KNTU

Flight info

Callsign CNV6694
Flight time N/A
Altitude 37000
Route HBT GRIZZ YXJ CALLY GOVIT OREYO LIVER LIZIO CCV
Aircraft B737/M-SDE2E3FGHIRWXY/LB1

Departure

Time 2026-05-01 11:04
Airport Tom Madsen (Dutch Harbor) Airport (PADU)

Arrival

Time N/A
Airport Oceana Naval Air Station (KNTU)
Time Latitude Longitude Altitude Speed Heading
2026-05-01 10:26 53.89517 -166.54193 21 ft 0 kts 175°
2026-05-01 10:57 53.89516 -166.54193 23 ft 2 kts 174°
2026-05-01 10:57 53.89500 -166.54170 22 ft 5 kts 116°
2026-05-01 10:57 53.89515 -166.54122 22 ft 5 kts 26°
2026-05-01 10:58 53.89524 -166.54115 24 ft 0 kts 25°
2026-05-01 10:58 53.89525 -166.54114 24 ft 0 kts 25°
2026-05-01 10:58 53.89549 -166.54094 26 ft 9 kts 29°
2026-05-01 10:59 53.89638 -166.54097 25 ft 20 kts 322°
2026-05-01 10:59 53.89773 -166.54314 26 ft 33 kts 316°
2026-05-01 10:59 53.89967 -166.54634 27 ft 44 kts 315°
2026-05-01 10:59 53.90162 -166.54939 30 ft 21 kts 314°
2026-05-01 11:00 53.90207 -166.55046 32 ft 0 kts 303°
2026-05-01 11:00 53.90213 -166.55061 31 ft 4 kts 303°
2026-05-01 11:00 53.90229 -166.55067 31 ft 2 kts 18°
2026-05-01 11:00 53.90233 -166.55041 32 ft 3 kts 105°
2026-05-01 11:01 53.90212 -166.55011 30 ft 7 kts 147°
2026-05-01 11:01 53.90120 -166.54887 29 ft 27 kts 137°
2026-05-01 11:01 53.89948 -166.54610 28 ft 42 kts 136°
2026-05-01 11:01 53.89719 -166.54234 27 ft 46 kts 137°
2026-05-01 11:02 53.89579 -166.53978 28 ft 23 kts 127°
2026-05-01 11:02 53.89508 -166.53858 21 ft 4 kts 180°
2026-05-01 11:02 53.89504 -166.53862 21 ft 2 kts 210°
2026-05-01 11:02 53.89499 -166.53880 20 ft 4 kts 257°
2026-05-01 11:03 53.89510 -166.53907 22 ft 2 kts 332°
2026-05-01 11:03 53.89571 -166.53976 28 ft 18 kts 305°
2026-05-01 11:03 53.89749 -166.54275 27 ft 77 kts 315°
2026-05-01 11:03 53.90344 -166.55253 46 ft 156 kts 314°
2026-05-01 11:04 53.91187 -166.56664 811 ft 169 kts 313°
2026-05-01 11:04 53.92030 -166.57990 2025 ft 170 kts 316°
2026-05-01 11:04 53.93001 -166.59425 2437 ft 200 kts 317°
2026-05-01 11:04 53.94199 -166.60909 2680 ft 228 kts 338°
2026-05-01 11:05 53.95828 -166.61017 2974 ft 256 kts 17°
2026-05-01 11:05 53.97304 -166.59244 3581 ft 267 kts 56°
2026-05-01 11:05 53.98113 -166.56389 4444 ft 270 kts 70°
2026-05-01 11:05 53.98780 -166.53379 5326 ft 274 kts 71°
2026-05-01 11:06 53.99449 -166.50321 6237 ft 277 kts 70°
2026-05-01 11:06 54.00135 -166.47266 7121 ft 282 kts 70°
2026-05-01 11:06 54.00860 -166.44127 8055 ft 287 kts 69°
2026-05-01 11:07 54.02389 -166.37726 9850 ft 297 kts 69°
2026-05-01 11:07 54.03191 -166.34434 10547 ft 310 kts 69°
2026-05-01 11:07 54.04062 -166.30887 10757 ft 338 kts 69°
2026-05-01 11:07 54.04989 -166.27138 11243 ft 353 kts 68°
2026-05-01 11:08 54.05956 -166.23250 12035 ft 359 kts 68°
2026-05-01 11:08 54.06943 -166.19291 12913 ft 364 kts 68°
2026-05-01 11:08 54.08937 -166.11299 14634 ft 370 kts 68°
2026-05-01 11:09 54.09952 -166.07225 15549 ft 373 kts 68°
2026-05-01 11:09 54.10971 -166.03125 16402 ft 377 kts 68°
2026-05-01 11:09 54.11993 -165.99017 17236 ft 382 kts 68°
2026-05-01 11:10 54.14080 -165.90588 18863 ft 387 kts 68°
2026-05-01 11:10 54.15124 -165.86358 19706 ft 387 kts 68°
2026-05-01 11:10 54.15816 -165.83553 20239 ft 389 kts 68°
2026-05-01 11:10 54.16869 -165.79274 21014 ft 391 kts 68°
2026-05-01 11:11 54.17923 -165.74984 21775 ft 393 kts 68°
2026-05-01 11:11 54.18985 -165.70649 22530 ft 396 kts 68°
2026-05-01 11:11 54.20052 -165.66289 23135 ft 400 kts 68°
2026-05-01 11:11 54.21122 -165.61908 23551 ft 407 kts 68°
2026-05-01 11:12 54.22221 -165.57394 23972 ft 414 kts 69°
2026-05-01 11:12 54.23336 -165.52808 24418 ft 420 kts 69°
2026-05-01 11:12 54.24464 -165.48158 24872 ft 426 kts 69°
2026-05-01 11:12 54.25611 -165.43418 25304 ft 431 kts 69°
2026-05-01 11:13 54.26749 -165.38706 25717 ft 437 kts 69°
2026-05-01 11:13 54.27924 -165.33833 26125 ft 443 kts 70°
2026-05-01 11:13 54.29108 -165.28909 26533 ft 448 kts 70°
2026-05-01 11:13 54.30289 -165.23989 26925 ft 453 kts 70°
2026-05-01 11:14 54.31490 -165.18972 27305 ft 458 kts 70°
2026-05-01 11:14 54.32711 -165.13860 27681 ft 463 kts 70°
2026-05-01 11:14 54.33927 -165.08757 28052 ft 468 kts 70°
2026-05-01 11:14 54.35170 -165.03526 28410 ft 473 kts 70°
2026-05-01 11:15 54.36400 -164.98342 28744 ft 478 kts 71°
2026-05-01 11:15 54.37662 -164.93008 29090 ft 482 kts 71°
2026-05-01 11:15 54.38934 -164.87619 29393 ft 487 kts 71°
2026-05-01 11:15 54.40195 -164.82262 29662 ft 491 kts 71°
2026-05-01 11:16 54.41476 -164.76808 29942 ft 494 kts 71°
2026-05-01 11:16 54.42765 -164.71304 30222 ft 497 kts 71°
2026-05-01 11:16 54.44060 -164.65762 30527 ft 500 kts 71°
2026-05-01 11:16 54.45356 -164.60203 30906 ft 500 kts 71°
2026-05-01 11:17 54.46633 -164.54716 31296 ft 500 kts 71°
2026-05-01 11:17 54.47929 -164.49129 31654 ft 501 kts 71°
2026-05-01 11:17 54.49221 -164.43541 31978 ft 503 kts 71°
2026-05-01 11:17 54.50500 -164.37992 32307 ft 504 kts 72°
2026-05-01 11:18 54.51797 -164.32353 32647 ft 504 kts 72°
2026-05-01 11:18 54.53089 -164.26723 32976 ft 505 kts 72°
2026-05-01 11:18 54.54377 -164.21093 33293 ft 506 kts 72°
2026-05-01 11:18 54.55666 -164.15441 33577 ft 506 kts 72°
2026-05-01 11:19 54.56940 -164.09844 33883 ft 506 kts 72°
2026-05-01 11:19 54.58228 -164.04171 34174 ft 506 kts 72°
2026-05-01 11:19 54.59493 -163.98582 34447 ft 506 kts 72°
2026-05-01 11:19 54.60772 -163.92918 34734 ft 506 kts 72°
2026-05-01 11:20 54.62048 -163.87250 35011 ft 505 kts 72°
2026-05-01 11:20 54.63322 -163.81575 35297 ft 505 kts 72°
2026-05-01 11:20 54.64575 -163.75979 35570 ft 505 kts 72°
2026-05-01 11:20 54.65841 -163.70313 35837 ft 505 kts 72°
2026-05-01 11:21 54.67109 -163.64616 36114 ft 505 kts 72°
2026-05-01 11:21 54.68354 -163.59015 36373 ft 505 kts 72°
2026-05-01 11:21 54.69611 -163.53337 36640 ft 505 kts 72°
2026-05-01 11:21 54.70867 -163.47651 36906 ft 504 kts 72°
2026-05-01 11:22 54.72117 -163.41977 37157 ft 504 kts 72°
2026-05-01 11:22 54.73365 -163.36295 37425 ft 504 kts 72°
2026-05-01 11:22 54.74593 -163.30692 37725 ft 502 kts 72°
2026-05-01 11:22 54.75829 -163.25038 37972 ft 501 kts 73°
2026-05-01 11:23 54.77061 -163.19382 38154 ft 501 kts 73°
2026-05-01 11:23 54.78292 -163.13718 38244 ft 503 kts 73°
2026-05-01 11:23 54.80740 -163.02401 38245 ft 502 kts 73°
2026-05-01 11:24 54.83179 -162.91072 38248 ft 500 kts 73°
2026-05-01 11:25 54.86804 -162.74116 38254 ft 497 kts 73°
2026-05-01 11:25 54.90374 -162.57267 38277 ft 497 kts 73°
2026-05-01 11:26 54.93942 -162.40289 38295 ft 498 kts 73°
2026-05-01 11:27 54.96302 -162.28982 38303 ft 500 kts 73°
2026-05-01 11:27 54.98668 -162.17581 38309 ft 500 kts 73°
2026-05-01 11:28 55.01015 -162.06209 38301 ft 502 kts 73°
2026-05-01 11:28 55.03377 -161.94698 38299 ft 503 kts 74°
2026-05-01 11:29 55.06893 -161.77440 38292 ft 504 kts 74°
2026-05-01 11:30 55.10381 -161.60168 38286 ft 504 kts 74°
2026-05-01 11:30 55.12703 -161.48587 38289 ft 504 kts 74°
2026-05-01 11:31 55.15001 -161.37060 38296 ft 503 kts 74°
2026-05-01 11:31 55.17297 -161.25472 38302 ft 503 kts 75°
2026-05-01 11:32 55.19566 -161.13951 38292 ft 502 kts 75°
2026-05-01 11:32 55.21833 -161.02371 38312 ft 502 kts 75°
2026-05-01 11:33 55.24084 -160.90803 38319 ft 501 kts 75°
2026-05-01 11:33 55.26324 -160.79222 38337 ft 501 kts 75°
2026-05-01 11:34 55.28541 -160.67692 38346 ft 501 kts 75°
2026-05-01 11:34 55.30769 -160.56044 38344 ft 501 kts 75°
2026-05-01 11:35 55.33018 -160.44494 38345 ft 502 kts 74°
2026-05-01 11:35 55.35419 -160.32913 38345 ft 503 kts 73°
2026-05-01 11:36 55.37808 -160.21437 38337 ft 503 kts 73°
2026-05-01 11:36 55.40191 -160.09814 38334 ft 503 kts 74°
2026-05-01 11:37 55.42534 -159.98250 38334 ft 504 kts 74°
2026-05-01 11:37 55.44878 -159.86591 38340 ft 504 kts 74°
2026-05-01 11:38 55.47203 -159.74960 38344 ft 505 kts 74°
2026-05-01 11:38 55.49532 -159.63242 38350 ft 505 kts 74°
2026-05-01 11:39 55.51833 -159.51599 38355 ft 506 kts 75°
2026-05-01 11:39 55.54140 -159.39857 38356 ft 506 kts 75°
2026-05-01 11:40 55.56439 -159.28086 38359 ft 506 kts 75°
2026-05-01 11:40 55.58711 -159.16381 38368 ft 506 kts 75°
2026-05-01 11:41 55.60988 -159.04581 38368 ft 506 kts 75°
2026-05-01 11:41 55.63255 -158.92755 38373 ft 506 kts 75°
2026-05-01 11:42 55.65494 -158.81005 38372 ft 506 kts 75°
2026-05-01 11:42 55.67735 -158.69172 38370 ft 505 kts 75°
2026-05-01 11:43 55.69966 -158.57321 38372 ft 505 kts 75°
2026-05-01 11:43 55.72173 -158.45517 38370 ft 505 kts 75°
2026-05-01 11:44 55.75458 -158.27813 38378 ft 505 kts 75°
2026-05-01 11:44 55.77649 -158.15913 38377 ft 505 kts 75°
2026-05-01 11:45 55.79819 -158.04052 38381 ft 505 kts 75°
2026-05-01 11:45 55.81985 -157.92133 38383 ft 506 kts 75°
2026-05-01 11:46 55.84127 -157.80273 38389 ft 506 kts 75°
2026-05-01 11:46 55.86276 -157.68297 38390 ft 506 kts 76°
2026-05-01 11:47 55.88393 -157.56424 38396 ft 506 kts 76°
2026-05-01 11:47 55.90517 -157.44433 38398 ft 506 kts 76°
2026-05-01 11:48 55.92617 -157.32497 38400 ft 506 kts 76°
2026-05-01 11:48 55.94710 -157.20523 38406 ft 506 kts 76°
2026-05-01 11:49 55.96800 -157.08489 38407 ft 506 kts 76°
2026-05-01 11:49 55.98875 -156.96458 38406 ft 506 kts 76°
2026-05-01 11:50 56.00931 -156.84456 38410 ft 506 kts 76°
2026-05-01 11:50 56.02981 -156.72407 38418 ft 506 kts 76°
2026-05-01 11:51 56.05021 -156.60337 38413 ft 507 kts 76°
2026-05-01 11:51 56.07051 -156.48245 38415 ft 506 kts 76°
2026-05-01 11:52 56.09064 -156.36167 38417 ft 506 kts 77°
2026-05-01 11:52 56.11062 -156.24097 38431 ft 506 kts 77°
2026-05-01 11:53 56.13043 -156.12048 38431 ft 506 kts 77°
2026-05-01 11:53 56.15020 -155.99939 38433 ft 505 kts 77°
2026-05-01 11:54 56.16979 -155.87855 38445 ft 505 kts 77°
2026-05-01 11:54 56.18933 -155.75718 38437 ft 505 kts 77°
2026-05-01 11:55 56.20860 -155.63664 38440 ft 504 kts 77°
2026-05-01 11:55 56.22789 -155.51509 38445 ft 504 kts 77°
2026-05-01 11:56 56.24691 -155.39437 38451 ft 504 kts 77°
2026-05-01 11:56 56.26597 -155.27250 38455 ft 504 kts 77°
2026-05-01 11:57 56.28170 -155.17129 38456 ft 505 kts 77°
2026-05-01 11:57 56.30357 -155.02951 38457 ft 505 kts 78°
2026-05-01 11:58 56.32230 -154.90714 38471 ft 505 kts 78°
2026-05-01 11:59 56.35003 -154.72423 38470 ft 506 kts 78°
2026-05-01 11:59 56.36843 -154.60175 38475 ft 506 kts 78°
2026-05-01 12:00 56.39574 -154.41819 38479 ft 505 kts 78°
2026-05-01 12:01 56.42276 -154.23459 38484 ft 505 kts 78°
2026-05-01 12:01 56.43777 -154.13163 38489 ft 505 kts 78°
2026-05-01 12:02 56.45541 -154.00972 38496 ft 504 kts 78°
2026-05-01 12:02 56.47310 -153.88663 38498 ft 504 kts 78°
2026-05-01 12:03 56.49054 -153.76424 38503 ft 504 kts 78°
2026-05-01 12:03 56.50791 -153.64143 38508 ft 503 kts 79°
2026-05-01 12:04 56.52508 -153.51900 38509 ft 503 kts 79°
2026-05-01 12:04 56.54227 -153.39548 38517 ft 503 kts 79°
2026-05-01 12:05 56.55919 -153.27297 38534 ft 504 kts 79°
2026-05-01 12:05 56.58445 -153.08817 38527 ft 504 kts 79°
2026-05-01 12:06 56.60111 -152.96504 38528 ft 504 kts 79°
2026-05-01 12:06 56.61778 -152.84079 38532 ft 505 kts 79°
2026-05-01 12:07 56.63430 -152.71669 38541 ft 505 kts 79°
2026-05-01 12:07 56.65061 -152.59308 38544 ft 505 kts 79°
2026-05-01 12:08 56.66688 -152.46877 38550 ft 505 kts 79°
2026-05-01 12:08 56.68294 -152.34494 38558 ft 505 kts 79°
2026-05-01 12:09 56.69899 -152.22022 38558 ft 505 kts 79°
2026-05-01 12:09 56.71483 -152.09605 38566 ft 505 kts 79°
2026-05-01 12:10 56.73841 -151.90916 38573 ft 504 kts 80°
2026-05-01 12:11 56.76164 -151.72255 38583 ft 504 kts 80°
2026-05-01 12:11 56.77701 -151.59776 38589 ft 503 kts 80°
2026-05-01 12:12 56.79217 -151.47353 38598 ft 503 kts 80°
2026-05-01 12:12 56.80728 -151.34862 38604 ft 503 kts 80°
2026-05-01 12:13 56.82216 -151.22446 38612 ft 503 kts 80°
2026-05-01 12:13 56.83700 -151.09949 38611 ft 503 kts 80°
2026-05-01 12:14 56.85169 -150.97470 38627 ft 503 kts 81°
2026-05-01 12:14 56.86618 -150.85038 38631 ft 503 kts 81°
2026-05-01 12:15 56.88065 -150.72509 38640 ft 503 kts 81°
2026-05-01 12:15 56.89496 -150.60000 38645 ft 503 kts 81°
2026-05-01 12:16 56.90921 -150.47430 38653 ft 504 kts 81°
2026-05-01 12:16 56.92327 -150.34903 38660 ft 504 kts 81°
2026-05-01 12:17 56.93720 -150.22373 38670 ft 504 kts 81°
2026-05-01 12:17 56.95109 -150.09757 38676 ft 504 kts 81°
2026-05-01 12:18 56.96483 -149.97146 38684 ft 504 kts 81°
2026-05-01 12:18 56.97837 -149.84594 38692 ft 504 kts 81°
2026-05-01 12:19 56.99187 -149.71964 38700 ft 504 kts 81°
2026-05-01 12:19 57.00523 -149.59326 38707 ft 504 kts 81°
2026-05-01 12:20 57.01838 -149.46761 38717 ft 503 kts 81°
2026-05-01 12:20 57.03147 -149.34124 38727 ft 503 kts 81°